| time (UTC) | temp F | wind direction | speed knots | gust knots | rain 1hr in | rain 24hr in | rain mn in | humidity % | barometer mb |
| 20260506203102 | 51 | 277 | 2.6 | 5.2 | 0.00 | 0.00 | 0.00 | 86 | 1012.2 |
| 20260506201558 | 51 | 283 | 1.7 | 3.5 | 0.00 | 0.00 | 0.00 | 85 | 1012.1 |
| 20260506200016 | 52 | 266 | 0.9 | 3.5 | 0.00 | 0.00 | 0.00 | 84 | 1011.8 |
| 20260506194533 | 52 | 276 | 0.9 | 5.2 | 0.00 | 0.01 | 0.00 | 83 | 1011.7 |
| 20260506193034 | 53 | 281 | 0.9 | 3.5 | 0.00 | 0.01 | 0.00 | 82 | 1011.3 |
| 20260506191526 | 54 | 273 | 1.7 | 3.5 | 0.00 | 0.01 | 0.00 | 79 | 1011.1 |
| 20260506190109 | 55 | 258 | 1.7 | 2.6 | 0.00 | 0.01 | 0.00 | 78 | 1011.0 |
| 20260506183137 | 57 | 281 | 0.0 | 2.6 | 0.00 | 0.02 | 0.00 | 73 | 1010.6 |
| 20260506180121 | 60 | 333 | 0.0 | 1.7 | 0.00 | 0.02 | 0.00 | 65 | 1010.7 |
| 20260506174508 | 62 | 118 | 1.7 | 5.2 | 0.00 | 0.05 | 0.00 | 59 | 1010.6 |
| 20260506173002 | 62 | 125 | 2.6 | 4.3 | 0.00 | 0.05 | 0.00 | 57 | 1010.6 |
| 20260506171538 | 62 | 135 | 3.5 | 6.1 | 0.00 | 0.05 | 0.00 | 56 | 1010.5 |
| 20260506170021 | 63 | 64 | 2.6 | 6.1 | 0.00 | 0.05 | 0.00 | 56 | 1010.6 |
| 20260506164535 | 63 | 138 | 0.0 | 2.6 | 0.00 | 0.05 | 0.00 | 58 | 1010.7 |
| 20260506163053 | 62 | 133 | 2.6 | 4.3 | 0.00 | 0.05 | 0.00 | 57 | 1010.6 |
| 20260506161619 | 62 | 141 | 0.0 | 1.7 | 0.00 | 0.05 | 0.00 | 59 | 1010.8 |
| 20260506160108 | 60 | 129 | 0.9 | 5.2 | 0.00 | 0.05 | 0.00 | 63 | 1010.8 |
| 20260506154631 | 60 | 171 | 1.7 | 7.0 | 0.00 | 0.05 | 0.00 | 65 | 1010.9 |
| 20260506153144 | 60 | 156 | 3.5 | 7.0 | 0.00 | 0.05 | 0.00 | 67 | 1011.0 |
| 20260506151649 | 60 | 127 | 5.2 | 8.7 | 0.00 | 0.05 | 0.00 | 67 | 1011.0 |
| 20260506150115 | 60 | 177 | 3.5 | 10.4 | 0.00 | 0.05 | 0.00 | 67 | 1011.1 |
| 20260506144700 | 62 | 179 | 6.1 | 9.6 | 0.00 | 0.09 | 0.00 | 65 | 1011.0 |
| 20260506141509 | 62 | 128 | 2.6 | 7.8 | 0.00 | 0.09 | 0.00 | 60 | 1011.0 |
| 20260506134512 | 62 | 100 | 2.6 | 6.1 | 0.00 | 0.09 | 0.00 | 59 | 1011.1 |
| 20260506133038 | 63 | 129 | 2.6 | 7.0 | 0.00 | 0.09 | 0.00 | 59 | 1011.1 |
| 20260506131655 | 63 | 89 | 0.9 | 5.2 | 0.00 | 0.09 | 0.00 | 56 | 1011.1 |
| 20260506124504 | 61 | 75 | 6.1 | 8.7 | 0.00 | 0.09 | 0.00 | 62 | 1011.4 |
| 20260506123030 | 61 | 98 | 4.3 | 7.0 | 0.00 | 0.09 | 0.00 | 58 | 1011.5 |
| 20260506121547 | 62 | 93 | 3.5 | 9.6 | 0.00 | 0.09 | 0.00 | 60 | 1011.4 |
| 20260506120057 | 61 | 89 | 3.5 | 8.7 | 0.00 | 0.09 | 0.00 | 61 | 1011.4 |
| 20260506114622 | 63 | 137 | 6.1 | 10.4 | 0.00 | 0.17 | 0.00 | 53 | 1011.5 |
| 20260506113127 | 64 | 159 | 3.5 | 7.8 | 0.00 | 0.17 | 0.00 | 49 | 1011.5 |
| 20260506111639 | 63 | 178 | 7.8 | 9.6 | 0.00 | 0.17 | 0.00 | 48 | 1011.6 |
| 20260506110119 | 64 | 317 | 2.6 | 4.3 | 0.00 | 0.17 | 0.00 | 50 | 1011.8 |
| 20260506104639 | 62 | 243 | 1.7 | 7.0 | 0.00 | 0.19 | 0.00 | 51 | 1011.9 |
| 20260506103201 | 62 | 183 | 2.6 | 9.6 | 0.00 | 0.19 | 0.00 | 51 | 1011.8 |
| 20260506101532 | 61 | 84 | 1.7 | 8.7 | 0.00 | 0.19 | 0.00 | 53 | 1011.9 |
| 20260506100003 | 61 | 276 | 2.6 | 7.8 | 0.00 | 0.19 | 0.00 | 54 | 1012.0 |
| 20260506094614 | 60 | 211 | 6.1 | 12.2 | 0.00 | 0.19 | 0.00 | 54 | 1012.1 |
| 20260506093134 | 59 | 241 | 7.8 | 15.6 | 0.00 | 0.19 | 0.00 | 58 | 1011.9 |
| 20260506091533 | 59 | 239 | 7.8 | 15.6 | 0.00 | 0.19 | 0.00 | 56 | 1011.9 |
| 20260506090014 | 59 | 294 | 6.1 | 16.5 | 0.00 | 0.19 | 0.00 | 58 | 1011.8 |
| 20260506084532 | 58 | 238 | 7.8 | 15.6 | 0.00 | 0.19 | 0.00 | 59 | 1011.8 |
| 20260506083009 | 58 | 254 | 8.7 | 13.9 | 0.00 | 0.19 | 0.00 | 60 | 1011.8 |
| 20260506081532 | 57 | 240 | 5.2 | 10.4 | 0.00 | 0.19 | 0.00 | 61 | 1011.8 |
| 20260506073044 | 56 | 261 | 7.8 | 14.8 | 0.00 | 0.19 | 0.00 | 63 | 1011.7 |
| 20260506071613 | 56 | 251 | 2.6 | 15.6 | 0.00 | 0.19 | 0.00 | 65 | 1011.5 |
| 20260506070150 | 55 | 237 | 3.5 | 9.6 | 0.00 | 0.19 | 0.00 | 65 | 1011.5 |
| 20260506061653 | 53 | 239 | 3.5 | 9.6 | 0.00 | 0.19 | 0.00 | 70 | 1011.4 |
| 20260506060201 | 52 | 212 | 4.3 | 12.2 | 0.00 | 0.19 | 0.00 | 72 | 1011.2 |
| 20260506050138 | 48 | 307 | 0.0 | 5.2 | 0.00 | 0.19 | 0.00 | 79 | 1010.7 |
| 20260506044658 | 46 | 244 | 0.9 | 5.2 | 0.00 | 0.19 | 0.00 | 84 | 1011.0 |
| 20260506043015 | 46 | 352 | 0.0 | 2.6 | 0.00 | 0.19 | 0.00 | 84 | 1011.0 |
| 20260506041531 | 46 | 342 | 0.0 | 1.7 | 0.00 | 0.19 | 0.00 | 83 | 1011.0 |
| 20260506040027 | 47 | 352 | 0.9 | 3.5 | 0.00 | 0.19 | 0.00 | 82 | 1011.1 |
| 20260506034534 | 47 | 359 | 0.9 | 2.6 | 0.00 | 0.19 | 0.00 | 81 | 1011.2 |
| 20260506033040 | 48 | 347 | 0.9 | 3.5 | 0.00 | 0.19 | 0.00 | 80 | 1011.2 |
| 20260506031558 | 47 | 273 | 0.9 | 3.5 | 0.00 | 0.19 | 0.00 | 83 | 1011.3 |
| 20260506030032 | 46 | 312 | 0.9 | 1.7 | 0.00 | 0.19 | 0.00 | 85 | 1011.3 |
| 20260506024554 | 46 | 23 | 0.9 | 3.5 | 0.00 | 0.19 | 0.00 | 86 | 1011.4 |
| 20260506023053 | 47 | 289 | 0.0 | 1.7 | 0.00 | 0.19 | 0.00 | 84 | 1011.2 |
| 20260506021608 | 48 | 306 | 0.0 | 3.5 | 0.00 | 0.19 | 0.00 | 83 | 1011.1 |
| 20260506020048 | 48 | 306 | 0.0 | 2.6 | 0.00 | 0.19 | 0.00 | 83 | 1011.1 |
| 20260506014616 | 46 | 261 | 1.7 | 6.1 | 0.00 | 0.19 | 0.00 | 87 | 1011.2 |
| 20260506013119 | 46 | 297 | 0.0 | 2.6 | 0.00 | 0.19 | 0.00 | 88 | 1011.2 |
| 20260506011633 | 46 | 29 | 0.0 | 1.7 | 0.00 | 0.19 | 0.00 | 88 | 1011.1 |
| 20260506010113 | 46 | 283 | 0.0 | 1.7 | 0.00 | 0.19 | 0.00 | 89 | 1011.3 |
| 20260506004635 | 46 | 283 | 0.9 | 5.2 | 0.00 | 0.19 | 0.00 | 89 | 1011.4 |
| 20260506003145 | 46 | 262 | 0.9 | 3.5 | 0.00 | 0.19 | 0.00 | 89 | 1011.7 |
| 20260506001651 | 47 | 279 | 0.9 | 1.7 | 0.00 | 0.19 | 0.00 | 89 | 1012.0 |
| 20260505231527 | 51 | 210 | 0.9 | 3.5 | 0.00 | 0.19 | 0.00 | 80 | 1012.1 |
| 20260505230031 | 52 | 266 | 0.0 | 1.7 | 0.00 | 0.19 | 0.00 | 78 | 1012.0 |
| 20260505224539 | 53 | 306 | 2.6 | 9.6 | 0.00 | 0.19 | 0.00 | 77 | 1012.0 |
| 20260505223104 | 53 | 284 | 7.0 | 14.8 | 0.00 | 0.19 | 0.00 | 77 | 1012.0 |
| 20260505221626 | 53 | 280 | 7.8 | 16.5 | 0.00 | 0.19 | 0.00 | 76 | 1011.6 |
| 20260505220010 | 53 | 287 | 9.6 | 16.5 | 0.00 | 0.19 | 0.19 | 77 | 1011.9 |
| 20260505214651 | 53 | 286 | 8.7 | 12.2 | 0.00 | 0.19 | 0.19 | 78 | 1012.0 |
| 20260505213120 | 51 | 262 | 3.5 | 8.7 | 0.00 | 0.19 | 0.19 | 87 | 1012.1 |
| 20260505211628 | 51 | 242 | 0.9 | 5.2 | 0.00 | 0.19 | 0.19 | 87 | 1012.2 |
| 20260505210016 | 52 | 274 | 1.7 | 7.8 | 0.00 | 0.19 | 0.19 | 88 | 1012.0 |
| 20260505204633 | 51 | 279 | 1.7 | 5.2 | 0.00 | 0.19 | 0.19 | 89 | 1012.0 |